Time,TemperatureF,DewpointF,PressureIn,WindDirection,WindDirectionDegrees,WindSpeedMPH,WindSpeedGustMPH,Humidity,HourlyPrecipIn,Conditions,Clouds,dailyrainin,SolarRadiationWatts/m^2,SoftwareType,DateUTC
2013-07-24 00:00:00,72.0,66.6,29.70,North,357,12.0,14.0,83,0.00,,---,0.01,0.00,VWS V14.01,2013-07-24 05:00:00,
2013-07-24 00:02:00,72.0,66.6,29.70,North,349,13.0,14.0,83,0.00,,---,0.00,0.00,VWS V14.01,2013-07-24 05:02:00,
2013-07-24 00:05:00,72.0,66.9,29.70,North,0,12.0,15.0,84,0.00,,---,0.00,0.00,VWS V14.01,2013-07-24 05:05:00,
2013-07-24 00:07:00,71.8,66.7,29.70,North,0,10.0,13.0,84,0.00,,---,0.00,0.00,VWS V14.01,2013-07-24 05:07:00,
2013-07-24 00:10:00,71.8,66.7,29.70,North,0,12.0,13.0,84,0.00,,---,0.00,0.00,VWS V14.01,2013-07-24 05:10:00,
2013-07-24 00:12:00,71.8,66.7,29.70,North,0,10.0,12.0,84,0.00,,---,0.00,0.00,VWS V14.01,2013-07-24 05:12:00,
2013-07-24 00:15:00,71.6,66.5,29.70,North,0,7.0,13.0,84,0.00,,---,0.00,0.00,VWS V14.01,2013-07-24 05:15:00,
2013-07-24 00:17:00,71.6,66.5,29.70,North,359,9.0,10.0,84,0.00,,---,0.00,0.00,VWS V14.01,2013-07-24 05:17:00,
2013-07-24 00:20:00,71.5,66.8,29.70,North,0,8.0,11.0,85,0.00,,---,0.00,0.00,VWS V14.01,2013-07-24 05:20:00,
2013-07-24 00:22:00,71.5,66.4,29.70,North,359,9.0,10.0,84,0.00,,---,0.00,0.00,VWS V14.01,2013-07-24 05:22:00,
2013-07-24 00:25:00,71.3,66.2,29.70,North,0,7.0,10.0,84,0.00,,---,0.00,0.00,VWS V14.01,2013-07-24 05:25:00,
2013-07-24 00:27:00,71.3,66.6,29.70,SW,216,5.0,9.0,85,0.00,,---,0.00,0.00,VWS V14.01,2013-07-24 05:27:00,
2013-07-24 00:30:00,71.3,66.6,29.70,North,0,7.0,13.0,85,0.00,,---,0.00,0.00,VWS V14.01,2013-07-24 05:30:00,
2013-07-24 00:32:00,71.1,66.4,29.70,NNW,340,4.0,10.0,85,0.00,,---,0.00,0.00,VWS V14.01,2013-07-24 05:32:00,
2013-07-24 00:35:00,71.1,66.4,29.70,North,354,6.0,10.0,85,0.00,,---,0.00,0.00,VWS V14.01,2013-07-24 05:35:00,
2013-07-24 00:37:00,70.9,66.5,29.70,North,350,6.0,7.0,86,0.00,,---,0.00,0.00,VWS V14.01,2013-07-24 05:37:00,
2013-07-24 00:40:00,70.9,66.5,29.70,SE,141,5.0,7.0,86,0.00,,---,0.00,0.00,VWS V14.01,2013-07-24 05:40:00,
2013-07-24 00:42:00,70.8,66.4,29.70,North,0,6.0,7.0,86,0.00,,---,0.00,0.00,VWS V14.01,2013-07-24 05:42:00,
2013-07-24 00:45:00,70.6,66.2,29.70,North,0,7.0,7.0,86,0.00,,---,0.00,0.00,VWS V14.01,2013-07-24 05:45:00,
2013-07-24 00:47:00,70.6,66.6,29.70,North,350,7.0,7.0,87,0.00,,---,0.00,0.00,VWS V14.01,2013-07-24 05:47:00,
2013-07-24 00:50:00,70.4,66.3,29.70,North,0,5.0,10.0,87,0.00,,---,0.00,0.00,VWS V14.01,2013-07-24 05:50:00,
2013-07-24 00:52:00,70.4,66.3,29.70,SE,145,6.0,9.0,87,0.00,,---,0.00,0.00,VWS V14.01,2013-07-24 05:52:00,
2013-07-24 00:55:00,70.3,66.6,29.70,North,349,10.0,10.0,88,0.00,,---,0.00,0.00,VWS V14.01,2013-07-24 05:55:00,
2013-07-24 00:57:00,70.3,66.6,29.70,North,0,9.0,11.0,88,0.00,,---,0.00,0.00,VWS V14.01,2013-07-24 05:57:00,
2013-07-24 01:00:00,70.3,66.6,29.72,North,353,11.0,12.0,88,0.00,,---,0.00,0.00,VWS V14.01,2013-07-24 06:00:00,
2013-07-24 01:02:00,70.3,66.6,29.72,North,359,10.0,12.0,88,0.00,,---,0.00,0.00,VWS V14.01,2013-07-24 06:02:00,
2013-07-24 01:05:00,70.3,66.6,29.72,North,0,10.0,12.0,88,0.00,,---,0.00,0.00,VWS V14.01,2013-07-24 06:05:00,
2013-07-24 01:08:00,70.3,66.6,29.72,North,352,8.0,10.0,88,0.00,,---,0.00,0.00,VWS V14.01,2013-07-24 06:08:00,
2013-07-24 01:10:00,70.1,66.4,29.72,North,0,7.0,11.0,88,0.00,,---,0.00,0.00,VWS V14.01,2013-07-24 06:10:00,
2013-07-24 01:13:00,70.1,66.4,29.72,NNW,344,7.0,11.0,88,0.00,,---,0.00,0.00,VWS V14.01,2013-07-24 06:13:00,
2013-07-24 01:15:00,70.1,66.4,29.71,North,0,8.0,11.0,88,0.00,,---,0.00,0.00,VWS V14.01,2013-07-24 06:15:00,
2013-07-24 01:18:00,70.1,66.4,29.71,NNW,343,8.0,11.0,88,0.00,,---,0.00,0.00,VWS V14.01,2013-07-24 06:18:00,
2013-07-24 01:20:00,70.1,66.7,29.71,ESE,117,8.0,11.0,89,0.00,,---,0.00,0.00,VWS V14.01,2013-07-24 06:20:00,
2013-07-24 01:23:00,69.9,66.5,29.71,North,0,9.0,10.0,89,0.00,,---,0.00,0.00,VWS V14.01,2013-07-24 06:23:00,
2013-07-24 01:25:00,69.9,66.5,29.71,North,0,7.0,11.0,89,0.00,,---,0.00,0.00,VWS V14.01,2013-07-24 06:25:00,
2013-07-24 01:28:00,69.9,66.5,29.71,North,0,8.0,11.0,89,0.00,,---,0.00,0.00,VWS V14.01,2013-07-24 06:28:00,
2013-07-24 01:30:00,69.9,66.5,29.72,North,0,7.0,11.0,89,0.00,,---,0.00,0.00,VWS V14.01,2013-07-24 06:30:00,
2013-07-24 01:33:00,69.8,66.4,29.72,North,0,9.0,11.0,89,0.00,,---,0.00,0.00,VWS V14.01,2013-07-24 06:33:00,
2013-07-24 01:35:00,69.8,66.4,29.72,NNW,347,6.0,11.0,89,0.00,,---,0.00,0.00,VWS V14.01,2013-07-24 06:35:00,
2013-07-24 01:38:00,69.8,66.4,29.72,North,0,6.0,8.0,89,0.00,,---,0.00,0.00,VWS V14.01,2013-07-24 06:38:00,
2013-07-24 01:40:00,69.8,66.4,29.72,NE,45,8.0,9.0,89,0.00,,---,0.00,0.00,VWS V14.01,2013-07-24 06:40:00,
2013-07-24 01:43:00,69.8,66.7,29.72,NNW,346,7.0,10.0,90,0.00,,---,0.00,0.00,VWS V14.01,2013-07-24 06:43:00,
2013-07-24 01:45:00,69.8,66.4,29.73,SE,126,7.0,10.0,89,0.00,,---,0.00,0.00,VWS V14.01,2013-07-24 06:45:00,
2013-07-24 01:48:00,69.6,66.5,29.73,NNW,340,8.0,8.0,90,0.00,,---,0.00,0.00,VWS V14.01,2013-07-24 06:48:00,
2013-07-24 01:50:00,69.6,66.5,29.73,North,0,10.0,10.0,90,0.00,,---,0.00,0.00,VWS V14.01,2013-07-24 06:50:00,
2013-07-24 01:53:00,69.6,66.5,29.73,NNW,347,7.0,10.0,90,0.00,,---,0.00,0.00,VWS V14.01,2013-07-24 06:53:00,
2013-07-24 01:55:00,69.6,66.5,29.73,North,0,7.0,10.0,90,0.00,,---,0.00,0.00,VWS V14.01,2013-07-24 06:55:00,
2013-07-24 01:58:00,69.6,66.5,29.73,North,0,5.0,10.0,90,0.00,,---,0.00,0.00,VWS V14.01,2013-07-24 06:58:00,
2013-07-24 02:00:00,69.4,66.3,29.72,NNW,342,8.0,10.0,90,0.00,,---,0.00,0.00,VWS V14.01,2013-07-24 07:00:00,
2013-07-24 02:04:00,69.4,66.3,29.72,NNW,344,8.0,10.0,90,0.00,,---,0.00,0.00,VWS V14.01,2013-07-24 07:04:00,
2013-07-24 02:05:00,69.4,66.3,29.72,North,353,10.0,10.0,90,0.00,,---,0.00,0.00,VWS V14.01,2013-07-24 07:05:00,
2013-07-24 02:09:00,69.4,66.3,29.72,NNW,347,9.0,11.0,90,0.00,,---,0.00,0.00,VWS V14.01,2013-07-24 07:09:00,
2013-07-24 02:10:00,69.4,66.3,29.72,North,353,8.0,11.0,90,0.00,,---,0.00,0.00,VWS V14.01,2013-07-24 07:10:00,
2013-07-24 02:14:00,69.4,66.3,29.72,SW,232,7.0,11.0,90,0.00,,---,0.00,0.00,VWS V14.01,2013-07-24 07:14:00,
2013-07-24 02:15:00,69.3,66.2,29.72,WNW,291,7.0,12.0,90,0.00,,---,0.00,0.00,VWS V14.01,2013-07-24 07:15:00,
2013-07-24 02:19:00,69.3,66.2,29.72,WNW,289,6.0,8.0,90,0.00,,---,0.00,0.00,VWS V14.01,2013-07-24 07:19:00,
2013-07-24 02:20:00,69.3,66.2,29.72,West,263,6.0,10.0,90,0.00,,---,0.00,0.00,VWS V14.01,2013-07-24 07:20:00,
2013-07-24 02:24:00,69.1,66.1,29.72,NNW,347,8.0,8.0,90,0.00,,---,0.00,0.00,VWS V14.01,2013-07-24 07:24:00,
2013-07-24 02:25:00,69.1,66.1,29.72,South,188,8.0,9.0,90,0.00,,---,0.00,0.00,VWS V14.01,2013-07-24 07:25:00,
2013-07-24 02:29:00,69.1,66.4,29.72,NW,316,7.0,8.0,91,0.00,,---,0.00,0.00,VWS V14.01,2013-07-24 07:29:00,
2013-07-24 02:30:00,69.1,66.1,29.71,North,350,8.0,9.0,90,0.00,,---,0.00,0.00,VWS V14.01,2013-07-24 07:30:00,
2013-07-24 02:34:00,68.9,66.2,29.71,North,349,6.0,10.0,91,0.00,,---,0.00,0.00,VWS V14.01,2013-07-24 07:34:00,
2013-07-24 02:35:00,68.9,66.2,29.71,North,352,8.0,10.0,91,0.00,,---,0.00,0.00,VWS V14.01,2013-07-24 07:35:00,
2013-07-24 02:39:00,68.9,66.2,29.71,South,188,7.0,11.0,91,0.00,,---,0.00,0.00,VWS V14.01,2013-07-24 07:39:00,
2013-07-24 02:40:00,68.9,66.2,29.71,NNW,339,7.0,11.0,91,0.00,,---,0.00,0.00,VWS V14.01,2013-07-24 07:40:00,
2013-07-24 02:44:00,68.8,66.1,29.71,NNW,343,6.0,11.0,91,0.00,,---,0.00,0.00,VWS V14.01,2013-07-24 07:44:00,
2013-07-24 02:45:00,68.8,66.1,29.71,NNE,30,6.0,11.0,91,0.00,,---,0.00,0.00,VWS V14.01,2013-07-24 07:45:00,
2013-07-24 02:50:00,68.8,66.4,29.71,North,0,7.0,8.0,92,0.00,,---,0.00,0.00,VWS V14.01,2013-07-24 07:50:00,
2013-07-24 02:55:00,68.6,66.2,29.71,North,0,5.0,10.0,92,0.00,,---,0.00,0.00,VWS V14.01,2013-07-24 07:55:00,
2013-07-24 03:00:00,68.6,66.2,29.72,North,359,7.0,9.0,92,0.00,,---,0.00,0.00,VWS V14.01,2013-07-24 08:00:00,
2013-07-24 03:05:00,68.4,66.0,29.72,NNW,346,10.0,12.0,92,0.00,,---,0.00,0.00,VWS V14.01,2013-07-24 08:05:00,
2013-07-24 03:10:00,68.3,65.9,29.72,ENE,61,8.0,12.0,92,0.00,,---,0.00,0.00,VWS V14.01,2013-07-24 08:10:00,
2013-07-24 03:15:00,68.3,65.9,29.72,North,353,9.0,11.0,92,0.00,,---,0.00,0.00,VWS V14.01,2013-07-24 08:15:00,
2013-07-24 03:20:00,68.3,65.9,29.72,NNW,344,10.0,12.0,92,0.00,,---,0.00,0.00,VWS V14.01,2013-07-24 08:20:00,
2013-07-24 03:25:00,68.1,65.7,29.72,NNW,337,10.0,11.0,92,0.00,,---,0.00,0.00,VWS V14.01,2013-07-24 08:25:00,
2013-07-24 03:30:00,68.1,65.7,29.72,NNW,329,7.0,13.0,92,0.00,,---,0.00,0.00,VWS V14.01,2013-07-24 08:30:00,
2013-07-24 03:35:00,67.9,65.2,29.72,ESE,103,7.0,13.0,91,0.00,,---,0.00,0.00,VWS V14.01,2013-07-24 08:35:00,
2013-07-24 03:40:00,67.8,65.4,29.72,North,349,9.0,12.0,92,0.00,,---,0.00,0.00,VWS V14.01,2013-07-24 08:40:00,
2013-07-24 03:45:00,67.8,65.4,29.73,North,353,8.0,13.0,92,0.00,,---,0.00,0.00,VWS V14.01,2013-07-24 08:45:00,
2013-07-24 03:50:00,67.6,65.2,29.73,North,0,6.0,8.0,92,0.00,,---,0.00,0.00,VWS V14.01,2013-07-24 08:50:00,
2013-07-24 03:55:00,67.4,65.0,29.73,NNW,346,7.0,10.0,92,0.00,,---,0.00,0.00,VWS V14.01,2013-07-24 08:55:00,
2013-07-24 04:00:00,67.3,64.9,29.73,North,352,12.0,12.0,92,0.00,,---,0.00,0.00,VWS V14.01,2013-07-24 09:00:00,
2013-07-24 04:01:00,67.3,64.9,29.73,West,265,9.0,12.0,92,0.00,,---,0.00,0.00,VWS V14.01,2013-07-24 09:01:00,
2013-07-24 04:05:00,67.1,64.7,29.73,North,0,10.0,12.0,92,0.00,,---,0.00,0.00,VWS V14.01,2013-07-24 09:05:00,
2013-07-24 04:06:00,67.1,64.7,29.73,North,0,8.0,10.0,92,0.00,,---,0.00,0.00,VWS V14.01,2013-07-24 09:06:00,
2013-07-24 04:10:00,66.9,64.5,29.73,North,353,6.0,10.0,92,0.00,,---,0.00,0.00,VWS V14.01,2013-07-24 09:10:00,
2013-07-24 04:11:00,66.9,64.5,29.73,North,354,10.0,11.0,92,0.00,,---,0.00,0.00,VWS V14.01,2013-07-24 09:11:00,
2013-07-24 04:15:00,66.9,64.5,29.73,North,354,8.0,11.0,92,0.00,,---,0.00,0.00,VWS V14.01,2013-07-24 09:15:00,
2013-07-24 04:16:00,66.8,64.4,29.73,North,0,6.0,9.0,92,0.00,,---,0.00,0.00,VWS V14.01,2013-07-24 09:16:00,
2013-07-24 04:20:00,66.8,64.4,29.73,North,350,5.0,11.0,92,0.00,,---,0.00,0.00,VWS V14.01,2013-07-24 09:20:00,
2013-07-24 04:22:00,66.8,64.4,29.73,WSW,253,9.0,10.0,92,0.00,,---,0.00,0.00,VWS V14.01,2013-07-24 09:22:00,
2013-07-24 04:25:00,66.6,64.2,29.73,SW,234,8.0,11.0,92,0.00,,---,0.00,0.00,VWS V14.01,2013-07-24 09:25:00,
2013-07-24 04:27:00,66.6,64.2,29.73,West,265,8.0,11.0,92,0.00,,---,0.00,0.00,VWS V14.01,2013-07-24 09:27:00,
2013-07-24 04:30:00,66.6,64.2,29.74,NNW,346,11.0,11.0,92,0.00,,---,0.00,0.00,VWS V14.01,2013-07-24 09:30:00,
2013-07-24 04:32:00,66.4,64.0,29.74,SSE,151,11.0,12.0,92,0.00,,---,0.00,0.00,VWS V14.01,2013-07-24 09:32:00,
2013-07-24 04:35:00,66.4,64.0,29.74,North,0,10.0,12.0,92,0.00,,---,0.00,0.00,VWS V14.01,2013-07-24 09:35:00,
2013-07-24 04:37:00,66.4,64.0,29.74,North,350,9.0,12.0,92,0.00,,---,0.00,0.00,VWS V14.01,2013-07-24 09:37:00,
2013-07-24 04:40:00,66.3,63.6,29.74,North,0,9.0,12.0,91,0.00,,---,0.00,0.00,VWS V14.01,2013-07-24 09:40:00,
2013-07-24 04:42:00,66.3,63.9,29.74,NNW,344,11.0,13.0,92,0.00,,---,0.00,0.00,VWS V14.01,2013-07-24 09:42:00,
2013-07-24 04:45:00,66.1,63.7,29.73,North,0,9.0,13.0,92,0.00,,---,0.00,0.00,VWS V14.01,2013-07-24 09:45:00,
2013-07-24 04:47:00,66.1,63.7,29.73,NNW,342,12.0,12.0,92,0.00,,---,0.00,0.00,VWS V14.01,2013-07-24 09:47:00,
2013-07-24 04:50:00,66.1,63.7,29.73,North,0,7.0,12.0,92,0.00,,---,0.00,0.00,VWS V14.01,2013-07-24 09:50:00,
2013-07-24 04:53:00,66.1,63.7,29.73,North,0,7.0,12.0,92,0.00,,---,0.00,0.00,VWS V14.01,2013-07-24 09:53:00,
2013-07-24 04:55:00,66.1,63.4,29.73,North,0,10.0,12.0,91,0.00,,---,0.00,0.00,VWS V14.01,2013-07-24 09:55:00,
2013-07-24 04:58:00,66.1,63.4,29.73,North,352,11.0,11.0,91,0.00,,---,0.00,0.00,VWS V14.01,2013-07-24 09:58:00,
2013-07-24 05:00:00,66.0,63.3,29.74,North,359,8.0,12.0,91,0.00,,---,0.00,0.00,VWS V14.01,2013-07-24 10:00:00,
2013-07-24 05:03:00,66.0,63.3,29.74,North,0,8.0,11.0,91,0.00,,---,0.00,0.00,VWS V14.01,2013-07-24 10:03:00,
2013-07-24 05:05:00,66.0,63.3,29.74,North,0,8.0,12.0,91,0.00,,---,0.00,0.00,VWS V14.01,2013-07-24 10:05:00,
2013-07-24 05:08:00,65.8,62.8,29.74,North,0,10.0,11.0,90,0.00,,---,0.00,0.00,VWS V14.01,2013-07-24 10:08:00,
2013-07-24 05:10:00,65.8,62.8,29.74,North,352,8.0,11.0,90,0.00,,---,0.00,0.00,VWS V14.01,2013-07-24 10:10:00,
2013-07-24 05:13:00,65.8,62.8,29.74,North,0,8.0,11.0,90,0.00,,---,0.00,0.00,VWS V14.01,2013-07-24 10:13:00,
2013-07-24 05:15:00,65.8,62.8,29.76,South,176,8.0,11.0,90,0.00,,---,0.00,0.00,VWS V14.01,2013-07-24 10:15:00,
2013-07-24 05:18:00,65.6,62.6,29.76,North,354,9.0,12.0,90,0.00,,---,0.00,0.00,VWS V14.01,2013-07-24 10:18:00,
2013-07-24 05:20:00,65.6,62.6,29.76,North,357,7.0,12.0,90,0.00,,---,0.00,0.00,VWS V14.01,2013-07-24 10:20:00,
2013-07-24 05:24:00,65.6,62.6,29.76,North,354,6.0,12.0,90,0.00,,---,0.00,0.00,VWS V14.01,2013-07-24 10:24:00,
2013-07-24 05:25:00,65.6,62.3,29.76,North,0,13.0,13.0,89,0.00,,---,0.00,0.00,VWS V14.01,2013-07-24 10:25:00,
2013-07-24 05:29:00,65.6,62.3,29.76,North,0,9.0,13.0,89,0.00,,---,0.00,0.00,VWS V14.01,2013-07-24 10:29:00,
2013-07-24 05:30:00,65.6,62.3,29.76,North,0,8.0,13.0,89,0.00,,---,0.00,0.00,VWS V14.01,2013-07-24 10:30:00,
2013-07-24 05:34:00,65.5,62.2,29.76,North,356,12.0,14.0,89,0.00,,---,0.00,0.00,VWS V14.01,2013-07-24 10:34:00,
2013-07-24 05:35:00,65.5,62.2,29.76,NNW,347,12.0,14.0,89,0.00,,---,0.00,0.00,VWS V14.01,2013-07-24 10:35:00,
2013-07-24 05:39:00,65.5,62.2,29.76,NNW,344,8.0,13.0,89,0.00,,---,0.00,0.00,VWS V14.01,2013-07-24 10:39:00,
2013-07-24 05:40:00,65.5,62.2,29.76,North,0,11.0,13.0,89,0.00,,---,0.00,0.00,VWS V14.01,2013-07-24 10:40:00,
2013-07-24 05:44:00,65.5,62.2,29.76,North,356,9.0,13.0,89,0.00,,---,0.00,0.00,VWS V14.01,2013-07-24 10:44:00,
2013-07-24 05:45:00,65.3,62.0,29.77,WNW,302,8.0,13.0,89,0.00,,---,0.00,0.00,VWS V14.01,2013-07-24 10:45:00,
2013-07-24 05:49:00,65.3,62.0,29.77,North,353,9.0,11.0,89,0.00,,---,0.00,0.00,VWS V14.01,2013-07-24 10:49:00,
2013-07-24 05:50:00,65.2,61.9,29.77,North,350,9.0,11.0,89,0.00,,---,0.00,0.00,VWS V14.01,2013-07-24 10:50:00,
2013-07-24 05:54:00,65.2,61.9,29.77,NNW,346,6.0,12.0,89,0.00,,---,0.00,0.00,VWS V14.01,2013-07-24 10:54:00,
2013-07-24 05:55:00,65.2,61.9,29.77,NNW,346,6.0,12.0,89,0.00,,---,0.00,0.00,VWS V14.01,2013-07-24 10:55:00,
2013-07-24 06:00:00,65.0,61.7,29.77,NNW,343,6.0,8.0,89,0.00,,---,0.00,0.00,VWS V14.01,2013-07-24 11:00:00,
2013-07-24 06:05:00,64.8,61.5,29.77,North,0,6.0,8.0,89,0.00,,---,0.00,0.00,VWS V14.01,2013-07-24 11:05:00,
2013-07-24 06:10:00,64.7,61.4,29.77,North,352,3.0,6.0,89,0.00,,---,0.00,0.00,VWS V14.01,2013-07-24 11:10:00,
2013-07-24 06:15:00,64.7,61.4,29.79,North,357,4.0,6.0,89,0.00,,---,0.00,0.00,VWS V14.01,2013-07-24 11:15:00,
2013-07-24 06:20:00,64.5,61.2,29.79,North,354,3.0,6.0,89,0.00,,---,0.00,0.00,VWS V14.01,2013-07-24 11:20:00,
2013-07-24 06:25:00,64.3,61.0,29.79,North,0,7.0,7.0,89,0.00,,---,0.00,0.00,VWS V14.01,2013-07-24 11:25:00,
2013-07-24 06:30:00,64.3,61.0,29.79,NW,325,3.0,7.0,89,0.00,,---,0.00,0.00,VWS V14.01,2013-07-24 11:30:00,
2013-07-24 06:35:00,64.3,61.0,29.79,North,0,1.0,6.0,89,0.00,,---,0.00,7.00,VWS V14.01,2013-07-24 11:35:00,
2013-07-24 06:40:00,64.3,61.3,29.79,North,0,0.0,3.0,90,0.00,,---,0.00,16.00,VWS V14.01,2013-07-24 11:40:00,
2013-07-24 06:45:00,64.3,61.0,29.78,NW,309,3.0,5.0,89,0.00,,---,0.00,21.00,VWS V14.01,2013-07-24 11:45:00,
2013-07-24 06:50:00,64.3,61.0,29.78,SE,127,3.0,5.0,89,0.00,,---,0.00,28.00,VWS V14.01,2013-07-24 11:50:00,
2013-07-24 06:55:00,64.3,61.0,29.78,SE,137,5.0,7.0,89,0.00,,---,0.00,35.00,VWS V14.01,2013-07-24 11:55:00,
2013-07-24 07:00:00,64.5,61.2,29.79,North,349,5.0,7.0,89,0.00,,---,0.00,42.00,VWS V14.01,2013-07-24 12:00:00,
2013-07-24 07:05:00,64.5,61.2,29.79,North,0,6.0,7.0,89,0.00,,---,0.00,72.00,VWS V14.01,2013-07-24 12:05:00,
2013-07-24 07:10:00,64.7,61.4,29.79,North,0,7.0,8.0,89,0.00,,---,0.00,72.00,VWS V14.01,2013-07-24 12:10:00,
2013-07-24 07:15:00,64.7,61.4,29.80,SSW,196,6.0,10.0,89,0.00,,---,0.00,84.00,VWS V14.01,2013-07-24 12:15:00,
2013-07-24 07:20:00,65.0,61.4,29.80,WSW,258,7.0,11.0,88,0.00,,---,0.00,97.00,VWS V14.01,2013-07-24 12:20:00,
2013-07-24 07:25:00,65.0,61.4,29.80,NNW,346,6.0,8.0,88,0.00,,---,0.00,109.00,VWS V14.01,2013-07-24 12:25:00,
2013-07-24 07:30:00,65.3,61.3,29.80,NNW,344,6.0,7.0,87,0.00,,---,0.00,123.00,VWS V14.01,2013-07-24 12:30:00,
2013-07-24 07:35:00,65.6,61.6,29.80,North,0,7.0,7.0,87,0.00,,---,0.00,137.00,VWS V14.01,2013-07-24 12:35:00,
2013-07-24 07:40:00,65.6,61.3,29.80,NW,322,5.0,8.0,86,0.00,,---,0.00,160.00,VWS V14.01,2013-07-24 12:40:00,
2013-07-24 07:45:00,66.0,61.4,29.81,NNW,342,5.0,5.0,85,0.00,,---,0.00,178.00,VWS V14.01,2013-07-24 12:45:00,
2013-07-24 07:50:00,66.3,61.3,29.81,North,354,4.0,6.0,84,0.00,,---,0.00,194.00,VWS V14.01,2013-07-24 12:50:00,
2013-07-24 07:55:00,66.4,61.1,29.81,ENE,78,3.0,6.0,83,0.00,,---,0.00,211.00,VWS V14.01,2013-07-24 12:55:00,
2013-07-24 08:00:00,66.6,61.3,29.82,NE,51,5.0,6.0,83,0.00,,---,0.00,218.00,VWS V14.01,2013-07-24 13:00:00,
2013-07-24 08:05:00,66.8,61.1,29.82,North,0,6.0,7.0,82,0.00,,---,0.00,238.00,VWS V14.01,2013-07-24 13:05:00,
2013-07-24 08:10:00,66.9,60.9,29.82,North,0,7.0,8.0,81,0.00,,---,0.00,238.00,VWS V14.01,2013-07-24 13:10:00,
2013-07-24 08:11:00,66.9,60.9,29.82,North,352,6.0,7.0,81,0.00,,---,0.00,243.00,VWS V14.01,2013-07-24 13:11:00,
2013-07-24 08:15:00,67.1,60.7,29.83,North,349,4.0,9.0,80,0.00,,---,0.00,255.00,VWS V14.01,2013-07-24 13:15:00,
2013-07-24 08:16:00,67.1,60.7,29.83,North,0,3.0,6.0,80,0.00,,---,0.00,259.00,VWS V14.01,2013-07-24 13:16:00,
2013-07-24 08:20:00,67.3,60.9,29.83,SW,222,5.0,8.0,80,0.00,,---,0.00,273.00,VWS V14.01,2013-07-24 13:20:00,
2013-07-24 08:22:00,67.4,60.7,29.83,North,0,6.0,7.0,79,0.00,,---,0.00,278.00,VWS V14.01,2013-07-24 13:22:00,
2013-07-24 08:25:00,67.8,61.1,29.83,South,186,4.0,7.0,79,0.00,,---,0.00,290.00,VWS V14.01,2013-07-24 13:25:00,
2013-07-24 08:27:00,67.9,60.8,29.83,North,0,4.0,6.0,78,0.00,,---,0.00,296.00,VWS V14.01,2013-07-24 13:27:00,
2013-07-24 08:30:00,68.1,61.0,29.83,North,350,4.0,6.0,78,0.00,,---,0.00,306.00,VWS V14.01,2013-07-24 13:30:00,
2013-07-24 08:32:00,68.3,60.8,29.83,North,359,3.0,6.0,77,0.00,,---,0.00,311.00,VWS V14.01,2013-07-24 13:32:00,
2013-07-24 08:35:00,68.4,60.9,29.83,North,0,1.0,6.0,77,0.00,,---,0.00,322.00,VWS V14.01,2013-07-24 13:35:00,
2013-07-24 08:37:00,68.8,61.3,29.83,North,0,0.0,1.0,77,0.00,,---,0.00,326.00,VWS V14.01,2013-07-24 13:37:00,
2013-07-24 08:40:00,69.1,61.6,29.83,NW,326,5.0,5.0,77,0.00,,---,0.00,352.00,VWS V14.01,2013-07-24 13:40:00,
2013-07-24 08:42:00,69.3,61.0,29.83,North,356,0.0,5.0,75,0.00,,---,0.00,357.00,VWS V14.01,2013-07-24 13:42:00,
2013-07-24 08:45:00,69.6,61.3,29.83,North,352,6.0,6.0,75,0.00,,---,0.00,357.00,VWS V14.01,2013-07-24 13:45:00,
2013-07-24 08:47:00,69.4,60.8,29.83,SSE,152,4.0,7.0,74,0.00,,---,0.00,373.00,VWS V14.01,2013-07-24 13:47:00,
2013-07-24 08:50:00,69.4,60.8,29.83,North,0,0.0,7.0,74,0.00,,---,0.00,382.00,VWS V14.01,2013-07-24 13:50:00,
2013-07-24 08:52:00,69.6,61.0,29.83,North,0,5.0,6.0,74,0.00,,---,0.00,384.00,VWS V14.01,2013-07-24 13:52:00,
2013-07-24 08:55:00,69.8,61.2,29.83,North,357,5.0,8.0,74,0.00,,---,0.00,399.00,VWS V14.01,2013-07-24 13:55:00,
2013-07-24 08:57:00,69.8,61.5,29.83,SSE,160,6.0,7.0,75,0.00,,---,0.00,396.00,VWS V14.01,2013-07-24 13:57:00,
2013-07-24 09:00:00,69.8,61.5,29.83,North,0,5.0,8.0,75,0.00,,---,0.00,410.00,VWS V14.01,2013-07-24 14:00:00,
2013-07-24 09:03:00,69.8,61.2,29.83,North,0,6.0,7.0,74,0.00,,---,0.00,424.00,VWS V14.01,2013-07-24 14:03:00,
2013-07-24 09:05:00,69.9,61.2,29.83,North,0,3.0,7.0,74,0.00,,---,0.00,428.00,VWS V14.01,2013-07-24 14:05:00,
2013-07-24 09:08:00,70.1,61.0,29.83,North,352,0.0,3.0,73,0.00,,---,0.00,421.00,VWS V14.01,2013-07-24 14:08:00,
2013-07-24 09:10:00,70.4,61.3,29.83,NE,51,1.0,6.0,73,0.00,,---,0.00,428.00,VWS V14.01,2013-07-24 14:10:00,
2013-07-24 09:13:00,70.8,60.9,29.83,North,0,5.0,5.0,71,0.00,,---,0.00,436.00,VWS V14.01,2013-07-24 14:13:00,
2013-07-24 09:15:00,70.8,61.3,29.83,ENE,61,0.0,5.0,72,0.00,,---,0.00,445.00,VWS V14.01,2013-07-24 14:15:00,
2013-07-24 09:18:00,70.9,61.4,29.83,NE,56,0.0,1.0,72,0.00,,---,0.00,452.00,VWS V14.01,2013-07-24 14:18:00,
2013-07-24 09:20:00,71.1,60.8,29.83,WNW,294,0.0,2.0,70,0.00,,---,0.00,454.00,VWS V14.01,2013-07-24 14:20:00,
2013-07-24 09:23:00,71.6,61.3,29.83,SSW,198,0.0,0.0,70,0.00,,---,0.00,466.00,VWS V14.01,2013-07-24 14:23:00,
2013-07-24 09:25:00,72.0,61.3,29.83,SSW,209,0.0,0.0,69,0.00,,---,0.00,470.00,VWS V14.01,2013-07-24 14:25:00,
2013-07-24 09:28:00,72.1,61.4,29.83,ESE,119,0.0,2.0,69,0.00,,---,0.00,477.00,VWS V14.01,2013-07-24 14:28:00,
2013-07-24 09:30:00,72.3,61.6,29.83,ESE,112,0.0,6.0,69,0.00,,---,0.00,484.00,VWS V14.01,2013-07-24 14:30:00,
2013-07-24 09:33:00,72.7,61.5,29.83,North,0,0.0,0.0,68,0.00,,---,0.00,489.00,VWS V14.01,2013-07-24 14:33:00,
2013-07-24 09:35:00,72.8,61.6,29.83,North,0,0.0,3.0,68,0.00,,---,0.00,500.00,VWS V14.01,2013-07-24 14:35:00,
2013-07-24 09:38:00,73.3,61.7,29.83,WSW,256,0.0,3.0,67,0.00,,---,0.00,509.00,VWS V14.01,2013-07-24 14:38:00,
2013-07-24 09:40:00,73.5,61.9,29.83,North,354,3.0,6.0,67,0.00,,---,0.00,526.00,VWS V14.01,2013-07-24 14:40:00,
2013-07-24 09:43:00,73.7,61.7,29.83,North,0,0.0,3.0,66,0.00,,---,0.00,533.00,VWS V14.01,2013-07-24 14:43:00,
2013-07-24 09:45:00,73.7,62.1,29.83,North,0,0.0,3.0,67,0.00,,---,0.00,540.00,VWS V14.01,2013-07-24 14:45:00,
2013-07-24 09:48:00,73.9,62.3,29.83,North,0,5.0,6.0,67,0.00,,---,0.00,540.00,VWS V14.01,2013-07-24 14:48:00,
2013-07-24 09:50:00,73.9,61.8,29.83,North,0,0.0,6.0,66,0.00,,---,0.00,542.00,VWS V14.01,2013-07-24 14:50:00,
2013-07-24 09:53:00,74.0,62.4,29.83,North,0,0.0,0.0,67,0.00,,---,0.00,545.00,VWS V14.01,2013-07-24 14:53:00,
2013-07-24 09:55:00,74.0,61.9,29.83,North,0,0.0,0.0,66,0.00,,---,0.00,542.00,VWS V14.01,2013-07-24 14:55:00,
2013-07-24 09:58:00,74.4,62.3,29.83,North,0,3.0,5.0,66,0.00,,---,0.00,563.00,VWS V14.01,2013-07-24 14:58:00,
2013-07-24 10:00:00,74.4,62.3,29.83,North,350,0.0,5.0,66,0.00,,---,0.00,568.00,VWS V14.01,2013-07-24 15:00:00,
2013-07-24 10:03:00,74.6,62.1,29.83,North,0,0.0,3.0,65,0.00,,---,0.00,577.00,VWS V14.01,2013-07-24 15:03:00,
2013-07-24 10:05:00,74.7,62.2,29.83,North,0,0.0,3.0,65,0.00,,---,0.00,586.00,VWS V14.01,2013-07-24 15:05:00,
2013-07-24 10:08:00,75.1,62.1,29.83,North,357,0.0,3.0,64,0.00,,---,0.00,584.00,VWS V14.01,2013-07-24 15:08:00,
2013-07-24 10:10:00,75.3,61.8,29.83,NW,322,1.0,3.0,63,0.00,,---,0.00,591.00,VWS V14.01,2013-07-24 15:10:00,
2013-07-24 10:14:00,75.3,62.3,29.83,North,349,0.0,2.0,64,0.00,,---,0.00,602.00,VWS V14.01,2013-07-24 15:14:00,
2013-07-24 10:15:00,75.3,62.3,29.83,North,0,0.0,2.0,64,0.00,,---,0.00,609.00,VWS V14.01,2013-07-24 15:15:00,
2013-07-24 10:19:00,75.3,61.8,29.83,West,261,3.0,6.0,63,0.00,,---,0.00,621.00,VWS V14.01,2013-07-24 15:19:00,
2013-07-24 10:20:00,75.3,61.8,29.83,North,353,0.0,6.0,63,0.00,,---,0.00,625.00,VWS V14.01,2013-07-24 15:20:00,
2013-07-24 10:24:00,75.6,62.1,29.83,North,354,0.0,2.0,63,0.00,,---,0.00,633.00,VWS V14.01,2013-07-24 15:24:00,
2013-07-24 10:25:00,76.0,62.5,29.83,North,0,3.0,3.0,63,0.00,,---,0.00,635.00,VWS V14.01,2013-07-24 15:25:00,
2013-07-24 10:29:00,76.1,62.2,29.83,North,354,0.0,3.0,62,0.00,,---,0.00,635.00,VWS V14.01,2013-07-24 15:29:00,
2013-07-24 10:30:00,76.3,62.3,29.83,North,0,0.0,3.0,62,0.00,,---,0.00,639.00,VWS V14.01,2013-07-24 15:30:00,
2013-07-24 10:34:00,76.8,62.3,29.83,North,357,6.0,6.0,61,0.00,,---,0.00,658.00,VWS V14.01,2013-07-24 15:34:00,
2013-07-24 10:35:00,76.7,62.2,29.83,North,11,3.0,6.0,61,0.00,,---,0.00,662.00,VWS V14.01,2013-07-24 15:35:00,
2013-07-24 10:39:00,76.3,62.3,29.83,North,0,6.0,8.0,62,0.00,,---,0.00,683.00,VWS V14.01,2013-07-24 15:39:00,
2013-07-24 10:40:00,76.3,62.8,29.83,North,0,7.0,8.0,63,0.00,,---,0.00,688.00,VWS V14.01,2013-07-24 15:40:00,
2013-07-24 10:44:00,76.0,62.0,29.83,North,0,3.0,7.0,62,0.00,,---,0.00,695.00,VWS V14.01,2013-07-24 15:44:00,
2013-07-24 10:45:00,76.0,62.0,29.83,North,0,3.0,7.0,62,0.00,,---,0.00,699.00,VWS V14.01,2013-07-24 15:45:00,
2013-07-24 10:49:00,76.1,62.2,29.83,NNW,347,5.0,7.0,62,0.00,,---,0.00,713.00,VWS V14.01,2013-07-24 15:49:00,
2013-07-24 10:50:00,76.3,62.8,29.83,NNW,342,7.0,7.0,63,0.00,,---,0.00,718.00,VWS V14.01,2013-07-24 15:50:00,
2013-07-24 10:54:00,76.5,62.5,29.83,SW,232,7.0,8.0,62,0.00,,---,0.00,721.00,VWS V14.01,2013-07-24 15:54:00,
2013-07-24 10:55:00,76.5,62.5,29.83,North,0,4.0,8.0,62,0.00,,---,0.00,709.00,VWS V14.01,2013-07-24 15:55:00,
2013-07-24 10:59:00,77.0,62.5,29.83,North,353,0.0,10.0,61,0.00,,---,0.00,691.00,VWS V14.01,2013-07-24 15:59:00,
2013-07-24 11:00:00,77.2,62.7,29.83,North,0,2.0,10.0,61,0.00,,---,0.00,709.00,VWS V14.01,2013-07-24 16:00:00,
2013-07-24 11:05:00,77.7,62.7,29.83,North,356,3.0,6.0,60,0.00,,---,0.00,714.00,VWS V14.01,2013-07-24 16:05:00,
2013-07-24 11:10:00,78.1,62.1,29.83,North,0,5.0,7.0,58,0.00,,---,0.00,764.00,VWS V14.01,2013-07-24 16:10:00,
2013-07-24 11:15:00,78.6,62.1,29.83,North,0,7.0,10.0,57,0.00,,---,0.00,776.00,VWS V14.01,2013-07-24 16:15:00,
2013-07-24 11:20:00,78.3,61.8,29.83,North,357,5.0,10.0,57,0.00,,---,0.00,792.00,VWS V14.01,2013-07-24 16:20:00,
2013-07-24 11:29:00,79.0,61.5,29.83,NNW,332,5.0,6.0,55,0.00,,---,0.00,767.00,VWS V14.01,2013-07-24 16:29:00,
2013-07-24 11:30:00,79.2,62.2,29.83,East,90,6.0,6.0,56,0.00,,---,0.00,790.00,VWS V14.01,2013-07-24 16:30:00,
2013-07-24 11:34:00,79.6,62.0,29.83,West,264,7.0,8.0,55,0.00,,---,0.00,820.00,VWS V14.01,2013-07-24 16:34:00,
2013-07-24 11:35:00,79.6,62.5,29.83,North,0,8.0,8.0,56,0.00,,---,0.00,813.00,VWS V14.01,2013-07-24 16:35:00,
2013-07-24 11:39:00,79.8,61.7,29.83,SSE,154,6.0,8.0,54,0.00,,---,0.00,822.00,VWS V14.01,2013-07-24 16:39:00,
2013-07-24 11:40:00,79.6,62.0,29.83,ESE,110,6.0,8.0,55,0.00,,---,0.00,815.00,VWS V14.01,2013-07-24 16:40:00,
2013-07-24 11:44:00,79.6,62.0,29.83,NNE,24,11.0,12.0,55,0.00,,---,0.00,827.00,VWS V14.01,2013-07-24 16:44:00,
2013-07-24 11:45:00,79.6,61.5,29.82,NNW,347,10.0,12.0,54,0.00,,---,0.00,838.00,VWS V14.01,2013-07-24 16:45:00,
2013-07-24 11:49:00,79.4,61.3,29.82,ENE,72,3.0,13.0,54,0.00,,---,0.00,839.00,VWS V14.01,2013-07-24 16:49:00,
2013-07-24 11:50:00,79.4,61.8,29.82,North,0,11.0,13.0,55,0.00,,---,0.00,830.00,VWS V14.01,2013-07-24 16:50:00,
2013-07-24 11:54:00,79.8,62.2,29.82,East,95,7.0,11.0,55,0.00,,---,0.00,845.00,VWS V14.01,2013-07-24 16:54:00,
2013-07-24 11:55:00,79.9,62.3,29.82,WNW,301,11.0,13.0,55,0.00,,---,0.00,850.00,VWS V14.01,2013-07-24 16:55:00,
2013-07-24 11:59:00,80.1,59.8,29.82,South,171,8.0,12.0,50,0.00,,---,0.00,859.00,VWS V14.01,2013-07-24 16:59:00,
2013-07-24 12:00:00,80.1,60.4,29.82,West,263,12.0,12.0,51,0.00,,---,0.00,862.00,VWS V14.01,2013-07-24 17:00:00,
2013-07-24 12:04:00,80.1,58.7,29.82,SW,236,6.0,12.0,48,0.00,,---,0.00,866.00,VWS V14.01,2013-07-24 17:04:00,
2013-07-24 12:05:00,80.3,58.8,29.82,WSW,237,8.0,12.0,48,0.00,,---,0.00,867.00,VWS V14.01,2013-07-24 17:05:00,
2013-07-24 12:09:00,80.7,57.4,29.82,ESE,120,7.0,13.0,45,0.00,,---,0.00,873.00,VWS V14.01,2013-07-24 17:09:00,
2013-07-24 12:10:00,80.9,58.2,29.82,WNW,295,7.0,13.0,46,0.00,,---,0.00,874.00,VWS V14.01,2013-07-24 17:10:00,
2013-07-24 12:15:00,80.7,56.2,29.83,North,353,12.0,13.0,43,0.00,,---,0.00,876.00,VWS V14.01,2013-07-24 17:15:00,
2013-07-24 12:20:00,81.1,55.9,29.83,East,100,8.0,12.0,42,0.00,,---,0.00,883.00,VWS V14.01,2013-07-24 17:20:00,
2013-07-24 12:25:00,80.9,57.6,29.83,NW,319,6.0,14.0,45,0.00,,---,0.00,822.00,VWS V14.01,2013-07-24 17:25:00,
2013-07-24 12:30:00,81.8,56.5,29.83,North,349,1.0,11.0,42,0.00,,---,0.00,894.00,VWS V14.01,2013-07-24 17:30:00,
2013-07-24 12:35:00,82.4,57.0,29.83,WSW,251,8.0,12.0,42,0.00,,---,0.00,899.00,VWS V14.01,2013-07-24 17:35:00,
2013-07-24 12:40:00,82.4,53.5,29.83,WNW,294,10.0,15.0,37,0.00,,---,0.00,903.00,VWS V14.01,2013-07-24 17:40:00,
2013-07-24 12:45:00,82.2,53.4,29.83,WNW,284,13.0,13.0,37,0.00,,---,0.00,901.00,VWS V14.01,2013-07-24 17:45:00,
2013-07-24 12:46:00,82.2,54.1,29.83,West,277,10.0,13.0,38,0.00,,---,0.00,901.00,VWS V14.01,2013-07-24 17:46:00,
2013-07-24 12:50:00,82.4,53.5,29.83,WSW,244,8.0,13.0,37,0.00,,---,0.00,894.00,VWS V14.01,2013-07-24 17:50:00,
2013-07-24 12:51:00,82.4,54.3,29.83,SSE,168,11.0,11.0,38,0.00,,---,0.00,894.00,VWS V14.01,2013-07-24 17:51:00,
2013-07-24 12:55:00,82.2,55.5,29.83,North,350,7.0,13.0,40,0.00,,---,0.00,903.00,VWS V14.01,2013-07-24 17:55:00,
2013-07-24 12:56:00,82.2,54.8,29.83,North,0,7.0,7.0,39,0.00,,---,0.00,903.00,VWS V14.01,2013-07-24 17:56:00,
2013-07-24 13:00:00,82.4,54.3,29.83,South,174,9.0,16.0,38,0.00,,---,0.00,915.00,VWS V14.01,2013-07-24 18:00:00,
2013-07-24 13:01:00,82.4,54.3,29.83,South,174,9.0,9.0,38,0.00,,---,0.00,915.00,VWS V14.01,2013-07-24 18:01:00,
2013-07-24 13:05:00,82.6,53.7,29.83,ENE,75,10.0,12.0,37,0.00,,---,0.00,871.00,VWS V14.01,2013-07-24 18:05:00,
2013-07-24 13:06:00,82.4,53.5,29.83,NNE,14,8.0,10.0,37,0.00,,---,0.00,911.00,VWS V14.01,2013-07-24 18:06:00,
2013-07-24 13:10:00,82.6,54.5,29.83,North,0,8.0,12.0,38,0.00,,---,0.00,892.00,VWS V14.01,2013-07-24 18:10:00,
2013-07-24 13:11:00,82.6,54.5,29.83,NNW,347,11.0,12.0,38,0.00,,---,0.00,892.00,VWS V14.01,2013-07-24 18:11:00,
2013-07-24 13:15:00,83.0,52.6,29.82,SSW,210,11.0,12.0,35,0.00,,---,0.00,81.00,VWS V14.01,2013-07-24 18:15:00,
2013-07-24 13:16:00,83.0,53.3,29.82,West,265,9.0,11.0,36,0.00,,---,0.00,81.00,VWS V14.01,2013-07-24 18:16:00,
2013-07-24 13:20:00,82.8,54.6,29.82,ESE,106,1.0,11.0,38,0.00,,---,0.00,100.00,VWS V14.01,2013-07-24 18:20:00,
2013-07-24 13:21:00,82.8,54.6,29.82,ENE,58,3.0,5.0,38,0.00,,---,0.00,143.00,VWS V14.01,2013-07-24 18:21:00,
2013-07-24 13:25:00,83.6,53.1,29.82,North,0,7.0,12.0,35,0.00,,---,0.00,333.00,VWS V14.01,2013-07-24 18:25:00,
2013-07-24 13:26:00,83.6,53.1,29.82,North,0,7.0,10.0,35,0.00,,---,0.00,333.00,VWS V14.01,2013-07-24 18:26:00,
2013-07-24 13:30:00,84.0,55.0,29.82,North,352,6.0,10.0,37,0.00,,---,0.00,361.00,VWS V14.01,2013-07-24 18:30:00,
2013-07-24 13:31:00,84.3,55.2,29.82,North,0,8.0,8.0,37,0.00,,---,0.00,361.00,VWS V14.01,2013-07-24 18:31:00,
2013-07-24 13:35:00,84.5,53.9,29.82,North,356,9.0,14.0,35,0.00,,---,0.00,60.00,VWS V14.01,2013-07-24 18:35:00,
2013-07-24 13:36:00,84.3,55.2,29.82,NNW,346,8.0,9.0,37,0.00,,---,0.00,60.00,VWS V14.01,2013-07-24 18:36:00,
2013-07-24 13:40:00,84.5,55.4,29.82,SE,133,4.0,12.0,37,0.00,,---,0.00,65.00,VWS V14.01,2013-07-24 18:40:00,
2013-07-24 13:41:00,84.5,55.4,29.82,SW,215,8.0,9.0,37,0.00,,---,0.00,65.00,VWS V14.01,2013-07-24 18:41:00,
2013-07-24 13:45:00,84.3,54.5,29.81,ESE,112,8.0,12.0,36,0.00,,---,0.00,65.00,VWS V14.01,2013-07-24 18:45:00,
2013-07-24 13:47:00,84.3,54.5,29.81,SSE,148,11.0,13.0,36,0.00,,---,0.00,285.00,VWS V14.01,2013-07-24 18:47:00,
2013-07-24 13:50:00,84.5,54.7,29.81,SSE,151,5.0,13.0,36,0.00,,---,0.00,241.00,VWS V14.01,2013-07-24 18:50:00,
2013-07-24 13:52:00,84.5,53.1,29.81,NNW,347,9.0,9.0,34,0.00,,---,0.00,755.00,VWS V14.01,2013-07-24 18:52:00,
2013-07-24 13:55:00,84.7,54.8,29.81,East,93,11.0,13.0,36,0.00,,---,0.00,308.00,VWS V14.01,2013-07-24 18:55:00,
2013-07-24 13:57:00,84.9,55.0,29.81,North,0,7.0,11.0,36,0.00,,---,0.00,308.00,VWS V14.01,2013-07-24 18:57:00,
2013-07-24 14:00:00,84.3,55.2,29.80,South,174,9.0,13.0,37,0.00,,---,0.00,90.00,VWS V14.01,2013-07-24 19:00:00,
2013-07-24 14:02:00,84.5,55.4,29.80,North,0,12.0,12.0,37,0.00,,---,0.00,90.00,VWS V14.01,2013-07-24 19:02:00,
2013-07-24 14:05:00,84.9,55.0,29.80,South,185,10.0,13.0,36,0.00,,---,0.00,910.00,VWS V14.01,2013-07-24 19:05:00,
2013-07-24 14:07:00,85.1,54.4,29.80,East,86,7.0,12.0,35,0.00,,---,0.00,915.00,VWS V14.01,2013-07-24 19:07:00,
2013-07-24 14:10:00,85.3,53.0,29.80,WNW,288,7.0,13.0,33,0.00,,---,0.00,926.00,VWS V14.01,2013-07-24 19:10:00,
2013-07-24 14:12:00,85.1,54.4,29.80,SSW,200,11.0,11.0,35,0.00,,---,0.00,920.00,VWS V14.01,2013-07-24 19:12:00,
2013-07-24 14:17:00,84.9,55.8,29.80,South,169,14.0,14.0,37,0.00,,---,0.00,903.00,VWS V14.01,2013-07-24 19:17:00,
2013-07-24 14:20:00,84.5,54.7,29.80,ENE,59,10.0,14.0,36,0.00,,---,0.00,911.00,VWS V14.01,2013-07-24 19:20:00,
2013-07-24 14:22:00,84.5,54.6,29.80,ENE,73,10.0,13.0,36,0.00,,---,0.00,896.00,VWS V14.01,2013-07-24 19:22:00,
2013-07-24 14:25:00,84.7,55.6,29.80,West,264,6.0,13.0,37,0.00,,---,0.00,885.00,VWS V14.01,2013-07-24 19:25:00,
2013-07-24 14:27:00,85.1,55.9,29.80,SE,126,8.0,8.0,37,0.00,,---,0.00,885.00,VWS V14.01,2013-07-24 19:27:00,
2013-07-24 14:30:00,85.5,56.3,29.80,SSE,157,10.0,12.0,37,0.00,,---,0.00,871.00,VWS V14.01,2013-07-24 19:30:00,
2013-07-24 14:33:00,85.3,55.3,29.80,ESE,104,6.0,12.0,36,0.00,,---,0.00,621.00,VWS V14.01,2013-07-24 19:33:00,
2013-07-24 14:35:00,85.3,55.3,29.80,WNW,291,11.0,12.0,36,0.00,,---,0.00,621.00,VWS V14.01,2013-07-24 19:35:00,
2013-07-24 14:38:00,85.3,55.3,29.80,West,268,6.0,13.0,36,0.00,,---,0.00,903.00,VWS V14.01,2013-07-24 19:38:00,
2013-07-24 14:40:00,85.5,54.8,29.80,North,0,9.0,15.0,35,0.00,,---,0.00,903.00,VWS V14.01,2013-07-24 19:40:00,
2013-07-24 14:43:00,85.5,56.3,29.80,SE,127,7.0,12.0,37,0.00,,---,0.00,829.00,VWS V14.01,2013-07-24 19:43:00,
2013-07-24 14:45:00,85.5,54.8,29.79,SSW,198,6.0,12.0,35,0.00,,---,0.00,862.00,VWS V14.01,2013-07-24 19:45:00,
2013-07-24 14:48:00,85.7,55.7,29.79,NNE,31,14.0,14.0,36,0.00,,---,0.00,876.00,VWS V14.01,2013-07-24 19:48:00,
2013-07-24 14:50:00,85.7,54.9,29.79,West,270,10.0,14.0,35,0.00,,---,0.00,830.00,VWS V14.01,2013-07-24 19:50:00,
2013-07-24 14:53:00,85.9,55.1,29.79,North,0,6.0,10.0,35,0.00,,---,0.00,882.00,VWS V14.01,2013-07-24 19:53:00,
2013-07-24 14:55:00,86.3,55.5,29.79,North,354,12.0,12.0,35,0.00,,---,0.00,866.00,VWS V14.01,2013-07-24 19:55:00,
2013-07-24 14:58:00,86.1,53.7,29.79,North,354,6.0,13.0,33,0.00,,---,0.00,878.00,VWS V14.01,2013-07-24 19:58:00,
2013-07-24 15:00:00,86.5,56.4,29.79,North,0,12.0,14.0,36,0.00,,---,0.00,882.00,VWS V14.01,2013-07-24 20:00:00,
2013-07-24 15:03:00,86.5,56.4,29.79,NNE,31,6.0,13.0,36,0.00,,---,0.00,866.00,VWS V14.01,2013-07-24 20:03:00,
2013-07-24 15:05:00,86.7,56.6,29.79,North,359,10.0,14.0,36,0.00,,---,0.00,859.00,VWS V14.01,2013-07-24 20:05:00,
2013-07-24 15:08:00,87.2,56.2,29.79,NNE,20,12.0,13.0,35,0.00,,---,0.00,802.00,VWS V14.01,2013-07-24 20:08:00,
2013-07-24 15:10:00,87.2,57.0,29.79,NNE,30,11.0,13.0,36,0.00,,---,0.00,889.00,VWS V14.01,2013-07-24 20:10:00,
2013-07-24 15:13:00,87.0,56.1,29.79,NNE,27,8.0,11.0,35,0.00,,---,0.00,846.00,VWS V14.01,2013-07-24 20:13:00,
2013-07-24 15:15:00,87.0,57.6,29.78,SSE,168,12.0,12.0,37,0.00,,---,0.00,832.00,VWS V14.01,2013-07-24 20:15:00,
2013-07-24 15:18:00,86.7,56.6,29.78,ESE,120,12.0,17.0,36,0.00,,---,0.00,801.00,VWS V14.01,2013-07-24 20:18:00,
2013-07-24 15:20:00,86.5,57.2,29.78,ENE,78,11.0,17.0,37,0.00,,---,0.00,809.00,VWS V14.01,2013-07-24 20:20:00,
2013-07-24 15:23:00,86.5,57.9,29.78,SW,215,8.0,11.0,38,0.00,,---,0.00,838.00,VWS V14.01,2013-07-24 20:23:00,
2013-07-24 15:25:00,86.5,57.2,29.78,SSW,205,12.0,13.0,37,0.00,,---,0.00,816.00,VWS V14.01,2013-07-24 20:25:00,
2013-07-24 15:28:00,87.0,56.8,29.78,West,264,9.0,17.0,36,0.00,,---,0.00,822.00,VWS V14.01,2013-07-24 20:28:00,
2013-07-24 15:30:00,87.2,56.2,29.78,ESE,112,8.0,17.0,35,0.00,,---,0.00,834.00,VWS V14.01,2013-07-24 20:30:00,
2013-07-24 15:34:00,87.2,57.0,29.78,ESE,106,11.0,14.0,36,0.00,,---,0.00,818.00,VWS V14.01,2013-07-24 20:34:00,
2013-07-24 15:35:00,87.0,55.3,29.78,ESE,119,11.0,14.0,34,0.00,,---,0.00,827.00,VWS V14.01,2013-07-24 20:35:00,
2013-07-24 15:39:00,87.0,56.1,29.78,North,3,7.0,12.0,35,0.00,,---,0.00,792.00,VWS V14.01,2013-07-24 20:39:00,
2013-07-24 15:40:00,87.2,57.0,29.78,SW,229,12.0,16.0,36,0.00,,---,0.00,808.00,VWS V14.01,2013-07-24 20:40:00,
2013-07-24 15:44:00,87.0,56.1,29.78,East,99,6.0,14.0,35,0.00,,---,0.00,795.00,VWS V14.01,2013-07-24 20:44:00,
2013-07-24 15:45:00,86.7,55.8,29.77,ENE,64,16.0,17.0,35,0.00,,---,0.00,801.00,VWS V14.01,2013-07-24 20:45:00,
2013-07-24 15:49:00,86.7,55.8,29.77,SSE,158,11.0,16.0,35,0.00,,---,0.00,808.00,VWS V14.01,2013-07-24 20:49:00,
2013-07-24 15:50:00,86.7,55.8,29.77,ENE,78,7.0,16.0,35,0.00,,---,0.00,799.00,VWS V14.01,2013-07-24 20:50:00,
2013-07-24 15:54:00,86.7,53.3,29.77,SSW,196,11.0,14.0,32,0.00,,---,0.00,737.00,VWS V14.01,2013-07-24 20:54:00,
2013-07-24 15:55:00,86.5,53.2,29.77,ESE,121,5.0,14.0,32,0.00,,---,0.00,691.00,VWS V14.01,2013-07-24 20:55:00,
2013-07-24 15:59:00,86.7,54.2,29.77,West,275,7.0,16.0,33,0.00,,---,0.00,790.00,VWS V14.01,2013-07-24 20:59:00,
2013-07-24 16:00:00,87.0,56.1,29.77,SW,226,10.0,16.0,35,0.00,,---,0.00,772.00,VWS V14.01,2013-07-24 21:00:00,
2013-07-24 16:04:00,87.4,54.8,29.77,North,356,12.0,13.0,33,0.00,,---,0.00,779.00,VWS V14.01,2013-07-24 21:04:00,
2013-07-24 16:05:00,87.4,54.0,29.77,North,0,9.0,13.0,32,0.00,,---,0.00,767.00,VWS V14.01,2013-07-24 21:05:00,
2013-07-24 16:09:00,87.6,55.8,29.77,ENE,66,13.0,13.0,34,0.00,,---,0.00,769.00,VWS V14.01,2013-07-24 21:09:00,
2013-07-24 16:10:00,87.6,55.0,29.77,ESE,121,10.0,13.0,33,0.00,,---,0.00,771.00,VWS V14.01,2013-07-24 21:10:00,
2013-07-24 16:14:00,87.6,55.8,29.77,SW,232,12.0,17.0,34,0.00,,---,0.00,693.00,VWS V14.01,2013-07-24 21:14:00,
2013-07-24 16:15:00,87.6,55.8,29.77,WSW,239,8.0,17.0,34,0.00,,---,0.00,681.00,VWS V14.01,2013-07-24 21:15:00,
2013-07-24 16:19:00,87.6,57.4,29.77,NW,304,12.0,13.0,36,0.00,,---,0.00,699.00,VWS V14.01,2013-07-24 21:19:00,
2013-07-24 16:20:00,87.6,56.6,29.77,ENE,76,10.0,13.0,35,0.00,,---,0.00,691.00,VWS V14.01,2013-07-24 21:20:00,
2013-07-24 16:24:00,87.2,57.8,29.77,South,174,11.0,15.0,37,0.00,,---,0.00,706.00,VWS V14.01,2013-07-24 21:24:00,
2013-07-24 16:25:00,87.2,57.8,29.77,SW,227,8.0,15.0,37,0.00,,---,0.00,677.00,VWS V14.01,2013-07-24 21:25:00,
2013-07-24 16:29:00,87.4,56.4,29.76,North,352,10.0,13.0,35,0.00,,---,0.00,684.00,VWS V14.01,2013-07-24 21:29:00,
2013-07-24 16:30:00,87.4,57.2,29.76,South,182,7.0,13.0,36,0.00,,---,0.00,704.00,VWS V14.01,2013-07-24 21:30:00,
2013-07-24 16:35:00,87.6,56.6,29.76,SSW,195,10.0,11.0,35,0.00,,---,0.00,700.00,VWS V14.01,2013-07-24 21:35:00,
2013-07-24 16:40:00,87.8,56.0,29.76,West,264,12.0,15.0,34,0.00,,---,0.00,686.00,VWS V14.01,2013-07-24 21:40:00,
2013-07-24 16:45:00,87.6,55.0,29.76,West,270,8.0,14.0,33,0.00,,---,0.00,669.00,VWS V14.01,2013-07-24 21:45:00,
2013-07-24 16:50:00,87.8,54.3,29.76,NNW,344,6.0,13.0,32,0.00,,---,0.00,663.00,VWS V14.01,2013-07-24 21:50:00,
2013-07-24 16:55:00,88.2,53.8,29.76,NW,306,6.0,14.0,31,0.00,,---,0.00,625.00,VWS V14.01,2013-07-24 21:55:00,
2013-07-24 17:00:00,88.2,53.8,29.75,WSW,244,7.0,10.0,31,0.00,,---,0.00,623.00,VWS V14.01,2013-07-24 22:00:00,
2013-07-24 17:05:00,87.8,55.2,29.75,NNW,347,7.0,14.0,33,0.00,,---,0.00,611.00,VWS V14.01,2013-07-24 22:05:00,
2013-07-24 17:06:00,87.8,55.2,29.75,NE,54,7.0,7.0,33,0.00,,---,0.00,611.00,VWS V14.01,2013-07-24 22:06:00,
2013-07-24 17:10:00,87.8,54.3,29.75,North,352,8.0,14.0,32,0.00,,---,0.00,591.00,VWS V14.01,2013-07-24 22:10:00,
2013-07-24 17:11:00,87.8,54.3,29.75,NW,304,8.0,9.0,32,0.00,,---,0.00,604.00,VWS V14.01,2013-07-24 22:11:00,
2013-07-24 17:15:00,87.8,55.2,29.75,NW,318,11.0,13.0,33,0.00,,---,0.00,584.00,VWS V14.01,2013-07-24 22:15:00,
2013-07-24 17:16:00,87.8,55.2,29.75,ENE,69,8.0,11.0,33,0.00,,---,0.00,591.00,VWS V14.01,2013-07-24 22:16:00,
2013-07-24 17:20:00,88.0,55.3,29.75,NNW,336,7.0,13.0,33,0.00,,---,0.00,581.00,VWS V14.01,2013-07-24 22:20:00,
2013-07-24 17:21:00,88.0,56.1,29.75,SW,229,8.0,12.0,34,0.00,,---,0.00,579.00,VWS V14.01,2013-07-24 22:21:00,
2013-07-24 17:25:00,88.2,57.1,29.75,North,0,10.0,13.0,35,0.00,,---,0.00,565.00,VWS V14.01,2013-07-24 22:25:00,
2013-07-24 17:26:00,88.2,55.5,29.75,North,359,9.0,13.0,33,0.00,,---,0.00,561.00,VWS V14.01,2013-07-24 22:26:00,
2013-07-24 17:30:00,88.0,56.9,29.75,West,275,10.0,13.0,35,0.00,,---,0.00,538.00,VWS V14.01,2013-07-24 22:30:00,
2013-07-24 17:31:00,87.8,56.0,29.75,NNW,346,9.0,14.0,34,0.00,,---,0.00,540.00,VWS V14.01,2013-07-24 22:31:00,
2013-07-24 17:35:00,87.8,55.2,29.75,North,0,8.0,14.0,33,0.00,,---,0.00,498.00,VWS V14.01,2013-07-24 22:35:00,
2013-07-24 17:36:00,87.6,55.0,29.75,SW,219,10.0,11.0,33,0.00,,---,0.00,517.00,VWS V14.01,2013-07-24 22:36:00,
2013-07-24 17:40:00,87.6,55.8,29.75,West,277,7.0,11.0,34,0.00,,---,0.00,528.00,VWS V14.01,2013-07-24 22:40:00,
2013-07-24 17:42:00,87.8,56.0,29.75,SSW,195,7.0,10.0,34,0.00,,---,0.00,523.00,VWS V14.01,2013-07-24 22:42:00,
2013-07-24 17:45:00,87.8,56.8,29.75,North,354,13.0,13.0,35,0.00,,---,0.00,509.00,VWS V14.01,2013-07-24 22:45:00,
2013-07-24 17:47:00,87.8,56.8,29.75,NNW,339,9.0,14.0,35,0.00,,---,0.00,494.00,VWS V14.01,2013-07-24 22:47:00,
2013-07-24 17:50:00,87.6,56.6,29.75,North,353,7.0,14.0,35,0.00,,---,0.00,472.00,VWS V14.01,2013-07-24 22:50:00,
2013-07-24 17:52:00,87.6,57.4,29.75,NNW,343,7.0,9.0,36,0.00,,---,0.00,479.00,VWS V14.01,2013-07-24 22:52:00,
2013-07-24 17:55:00,87.6,57.4,29.75,North,352,8.0,11.0,36,0.00,,---,0.00,477.00,VWS V14.01,2013-07-24 22:55:00,
2013-07-24 17:57:00,87.6,55.8,29.75,North,0,11.0,14.0,34,0.00,,---,0.00,468.00,VWS V14.01,2013-07-24 22:57:00,
2013-07-24 18:00:00,87.4,56.4,29.75,North,354,7.0,14.0,35,0.00,,---,0.00,463.00,VWS V14.01,2013-07-24 23:00:00,
2013-07-24 18:02:00,87.6,56.6,29.75,North,356,11.0,12.0,35,0.00,,---,0.00,459.00,VWS V14.01,2013-07-24 23:02:00,
2013-07-24 18:05:00,87.6,56.6,29.75,NNW,335,10.0,12.0,35,0.00,,---,0.00,438.00,VWS V14.01,2013-07-24 23:05:00,
2013-07-24 18:07:00,87.4,55.6,29.75,SSW,205,8.0,12.0,34,0.00,,---,0.00,426.00,VWS V14.01,2013-07-24 23:07:00,
2013-07-24 18:10:00,87.0,55.3,29.75,NNW,339,8.0,12.0,34,0.00,,---,0.00,417.00,VWS V14.01,2013-07-24 23:10:00,
2013-07-24 18:12:00,87.0,56.1,29.75,North,0,12.0,12.0,35,0.00,,---,0.00,410.00,VWS V14.01,2013-07-24 23:12:00,
2013-07-24 18:15:00,87.2,56.2,29.75,South,188,3.0,14.0,35,0.00,,---,0.00,405.00,VWS V14.01,2013-07-24 23:15:00,
2013-07-24 18:17:00,87.2,57.0,29.75,East,82,10.0,11.0,36,0.00,,---,0.00,377.00,VWS V14.01,2013-07-24 23:17:00,
2013-07-24 18:20:00,87.0,55.3,29.75,North,356,11.0,16.0,34,0.00,,---,0.00,384.00,VWS V14.01,2013-07-24 23:20:00,
2013-07-24 18:22:00,87.0,56.1,29.75,East,80,8.0,11.0,35,0.00,,---,0.00,387.00,VWS V14.01,2013-07-24 23:22:00,
2013-07-24 18:25:00,86.7,55.8,29.75,SSE,164,11.0,13.0,35,0.00,,---,0.00,373.00,VWS V14.01,2013-07-24 23:25:00,
2013-07-24 18:27:00,86.7,56.6,29.75,North,354,11.0,12.0,36,0.00,,---,0.00,373.00,VWS V14.01,2013-07-24 23:27:00,
2013-07-24 18:30:00,86.7,56.6,29.74,NNW,333,6.0,12.0,36,0.00,,---,0.00,362.00,VWS V14.01,2013-07-24 23:30:00,
2013-07-24 18:32:00,86.7,55.8,29.74,SSE,154,11.0,13.0,35,0.00,,---,0.00,352.00,VWS V14.01,2013-07-24 23:32:00,
2013-07-24 18:35:00,86.5,55.6,29.74,North,0,8.0,13.0,35,0.00,,---,0.00,359.00,VWS V14.01,2013-07-24 23:35:00,
2013-07-24 18:37:00,86.5,56.4,29.74,ENE,78,11.0,13.0,36,0.00,,---,0.00,340.00,VWS V14.01,2013-07-24 23:37:00,
2013-07-24 18:40:00,86.5,57.2,29.74,North,356,11.0,14.0,37,0.00,,---,0.00,317.00,VWS V14.01,2013-07-24 23:40:00,
2013-07-24 18:42:00,86.5,56.4,29.74,WSW,250,11.0,11.0,36,0.00,,---,0.00,308.00,VWS V14.01,2013-07-24 23:42:00,
2013-07-24 18:45:00,86.3,57.0,29.74,NNW,346,5.0,11.0,37,0.00,,---,0.00,345.00,VWS V14.01,2013-07-24 23:45:00,
2013-07-24 18:48:00,86.5,57.9,29.74,NNW,347,13.0,13.0,38,0.00,,---,0.00,334.00,VWS V14.01,2013-07-24 23:48:00,
2013-07-24 18:50:00,86.3,57.7,29.74,NNW,337,5.0,13.0,38,0.00,,---,0.00,326.00,VWS V14.01,2013-07-24 23:50:00,
2013-07-24 18:53:00,86.3,57.7,29.74,East,89,7.0,10.0,38,0.00,,---,0.00,338.00,VWS V14.01,2013-07-24 23:53:00,
2013-07-24 18:55:00,86.1,57.5,29.74,SSW,192,9.0,12.0,38,0.00,,---,0.00,292.00,VWS V14.01,2013-07-24 23:55:00,
2013-07-24 18:58:00,86.1,56.8,29.74,North,354,8.0,11.0,37,0.00,,---,0.00,308.00,VWS V14.01,2013-07-24 23:58:00,
2013-07-24 19:00:00,85.9,57.4,29.75,North,0,9.0,12.0,38,0.00,,---,0.00,255.00,VWS V14.01,2013-07-25 00:00:00,
2013-07-24 19:03:00,85.9,58.8,29.75,ENE,69,10.0,11.0,40,0.00,,---,0.00,236.00,VWS V14.01,2013-07-25 00:03:00,
2013-07-24 19:05:00,85.7,57.9,29.75,WNW,301,7.0,11.0,39,0.00,,---,0.00,197.00,VWS V14.01,2013-07-25 00:05:00,
2013-07-24 19:08:00,85.5,57.0,29.75,North,0,8.0,12.0,38,0.00,,---,0.00,216.00,VWS V14.01,2013-07-25 00:08:00,
2013-07-24 19:10:00,85.5,57.7,29.75,SSE,160,8.0,12.0,39,0.00,,---,0.00,230.00,VWS V14.01,2013-07-25 00:10:00,
2013-07-24 19:13:00,85.5,58.5,29.75,North,359,9.0,11.0,40,0.00,,---,0.00,223.00,VWS V14.01,2013-07-25 00:13:00,
2013-07-24 19:15:00,85.3,59.0,29.75,NNW,344,7.0,12.0,41,0.00,,---,0.00,243.00,VWS V14.01,2013-07-25 00:15:00,
2013-07-24 19:18:00,85.3,59.0,29.75,ESE,116,7.0,11.0,41,0.00,,---,0.00,239.00,VWS V14.01,2013-07-25 00:18:00,
2013-07-24 19:20:00,85.3,59.0,29.75,ESE,103,7.0,11.0,41,0.00,,---,0.00,225.00,VWS V14.01,2013-07-25 00:20:00,
2013-07-24 19:23:00,85.3,59.6,29.75,North,0,7.0,11.0,42,0.00,,---,0.00,137.00,VWS V14.01,2013-07-25 00:23:00,
2013-07-24 19:25:00,85.3,59.6,29.75,ESE,119,7.0,11.0,42,0.00,,---,0.00,144.00,VWS V14.01,2013-07-25 00:25:00,
2013-07-24 19:29:00,84.9,59.3,29.75,North,0,6.0,10.0,42,0.00,,---,0.00,132.00,VWS V14.01,2013-07-25 00:29:00,
2013-07-24 19:30:00,84.7,59.1,29.75,North,0,6.0,10.0,42,0.00,,---,0.00,121.00,VWS V14.01,2013-07-25 00:30:00,
2013-07-24 19:33:00,84.5,58.9,29.75,North,0,11.0,11.0,42,0.00,,---,0.00,118.00,VWS V14.01,2013-07-25 00:33:00,
2013-07-24 19:35:00,84.3,58.7,29.75,North,352,8.0,11.0,42,0.00,,---,0.00,106.00,VWS V14.01,2013-07-25 00:35:00,
2013-07-24 19:39:00,84.1,59.2,29.75,NW,325,6.0,10.0,43,0.00,,---,0.00,99.00,VWS V14.01,2013-07-25 00:39:00,
2013-07-24 19:40:00,84.0,59.8,29.75,NNW,347,9.0,10.0,44,0.00,,---,0.00,111.00,VWS V14.01,2013-07-25 00:40:00,
2013-07-24 19:44:00,83.6,60.0,29.75,NNW,346,6.0,10.0,45,0.00,,---,0.00,100.00,VWS V14.01,2013-07-25 00:44:00,
2013-07-24 19:45:00,83.4,59.8,29.76,NW,319,7.0,11.0,45,0.00,,---,0.00,102.00,VWS V14.01,2013-07-25 00:45:00,
2013-07-24 19:49:00,83.4,59.8,29.76,NNW,343,7.0,11.0,45,0.00,,---,0.00,100.00,VWS V14.01,2013-07-25 00:49:00,
2013-07-24 19:50:00,83.2,59.0,29.76,NNW,347,5.0,11.0,44,0.00,,---,0.00,88.00,VWS V14.01,2013-07-25 00:50:00,
2013-07-24 19:54:00,83.0,59.5,29.76,SE,134,6.0,7.0,45,0.00,,---,0.00,69.00,VWS V14.01,2013-07-25 00:54:00,
2013-07-24 19:55:00,83.0,59.5,29.76,North,0,3.0,7.0,45,0.00,,---,0.00,69.00,VWS V14.01,2013-07-25 00:55:00,
2013-07-24 19:59:00,82.6,59.8,29.76,North,352,7.0,7.0,46,0.00,,---,0.00,63.00,VWS V14.01,2013-07-25 00:59:00,
2013-07-24 20:00:00,82.6,59.7,29.76,North,0,5.0,7.0,46,0.00,,---,0.00,62.00,VWS V14.01,2013-07-25 01:00:00,
2013-07-24 20:04:00,82.2,59.4,29.76,WNW,302,7.0,7.0,46,0.00,,---,0.00,55.00,VWS V14.01,2013-07-25 01:04:00,
2013-07-24 20:05:00,82.2,60.0,29.76,South,181,6.0,7.0,47,0.00,,---,0.00,55.00,VWS V14.01,2013-07-25 01:05:00,
2013-07-24 20:10:00,82.0,59.8,29.76,North,0,6.0,7.0,47,0.00,,---,0.00,39.00,VWS V14.01,2013-07-25 01:10:00,
2013-07-24 20:15:00,81.6,59.4,29.76,North,0,3.0,7.0,47,0.00,,---,0.00,32.00,VWS V14.01,2013-07-25 01:15:00,
2013-07-24 20:20:00,81.2,59.7,29.76,North,0,5.0,6.0,48,0.00,,---,0.00,26.00,VWS V14.01,2013-07-25 01:20:00,
2013-07-24 20:25:00,81.1,59.6,29.76,North,357,5.0,6.0,48,0.00,,---,0.00,16.00,VWS V14.01,2013-07-25 01:25:00,
2013-07-24 20:30:00,80.7,59.8,29.76,WNW,287,3.0,6.0,49,0.00,,---,0.00,11.00,VWS V14.01,2013-07-25 01:30:00,
2013-07-24 20:35:00,80.3,59.4,29.76,East,86,3.0,6.0,49,0.00,,---,0.00,0.00,VWS V14.01,2013-07-25 01:35:00,
2013-07-24 20:40:00,80.1,59.8,29.76,North,0,4.0,5.0,50,0.00,,---,0.00,0.00,VWS V14.01,2013-07-25 01:40:00,
2013-07-24 20:45:00,79.9,60.2,29.77,North,0,3.0,6.0,51,0.00,,---,0.00,0.00,VWS V14.01,2013-07-25 01:45:00,
2013-07-24 20:50:00,79.8,60.1,29.77,NW,312,2.0,5.0,51,0.00,,---,0.00,0.00,VWS V14.01,2013-07-25 01:50:00,
2013-07-24 20:55:00,79.6,60.4,29.77,SE,136,3.0,5.0,52,0.00,,---,0.00,0.00,VWS V14.01,2013-07-25 01:55:00,
2013-07-24 21:00:00,79.2,60.1,29.76,North,0,2.0,5.0,52,0.00,,---,0.00,0.00,VWS V14.01,2013-07-25 02:00:00,
2013-07-24 21:05:00,78.8,60.8,29.76,NNW,347,5.0,5.0,54,0.00,,---,0.00,0.00,VWS V14.01,2013-07-25 02:05:00,
2013-07-24 21:10:00,78.3,60.8,29.76,North,0,5.0,5.0,55,0.00,,---,0.00,0.00,VWS V14.01,2013-07-25 02:10:00,
2013-07-24 21:15:00,78.1,60.6,29.76,North,352,3.0,3.0,55,0.00,,---,0.00,0.00,VWS V14.01,2013-07-25 02:15:00,
2013-07-24 21:20:00,77.9,60.5,29.76,East,100,6.0,6.0,55,0.00,,---,0.00,0.00,VWS V14.01,2013-07-25 02:20:00,
2013-07-24 21:25:00,77.7,60.8,29.76,WSW,240,3.0,7.0,56,0.00,,---,0.00,0.00,VWS V14.01,2013-07-25 02:25:00,
2013-07-24 21:26:00,77.7,61.3,29.76,North,0,5.0,5.0,57,0.00,,---,0.00,0.00,VWS V14.01,2013-07-25 02:26:00,
2013-07-24 21:30:00,77.4,61.0,29.77,North,357,5.0,6.0,57,0.00,,---,0.00,0.00,VWS V14.01,2013-07-25 02:30:00,
2013-07-24 21:31:00,77.4,61.0,29.77,NNW,347,5.0,5.0,57,0.00,,---,0.00,0.00,VWS V14.01,2013-07-25 02:31:00,
2013-07-24 21:35:00,77.2,60.8,29.77,North,356,5.0,6.0,57,0.00,,---,0.00,0.00,VWS V14.01,2013-07-25 02:35:00,
2013-07-24 21:36:00,77.2,60.8,29.77,North,353,4.0,5.0,57,0.00,,---,0.00,0.00,VWS V14.01,2013-07-25 02:36:00,
2013-07-24 21:40:00,77.0,61.1,29.77,South,191,4.0,6.0,58,0.00,,---,0.00,0.00,VWS V14.01,2013-07-25 02:40:00,
2013-07-24 21:41:00,76.8,60.9,29.77,North,0,5.0,5.0,58,0.00,,---,0.00,0.00,VWS V14.01,2013-07-25 02:41:00,
2013-07-24 21:45:00,76.7,60.8,29.77,South,181,5.0,6.0,58,0.00,,---,0.00,0.00,VWS V14.01,2013-07-25 02:45:00,
2013-07-24 21:46:00,76.7,60.8,29.77,ESE,107,6.0,6.0,58,0.00,,---,0.00,0.00,VWS V14.01,2013-07-25 02:46:00,
2013-07-24 21:50:00,76.7,60.8,29.77,SSE,147,5.0,6.0,58,0.00,,---,0.00,0.00,VWS V14.01,2013-07-25 02:50:00,
2013-07-24 21:51:00,76.7,60.8,29.77,West,271,3.0,5.0,58,0.00,,---,0.00,0.00,VWS V14.01,2013-07-25 02:51:00,
2013-07-24 21:55:00,76.5,60.6,29.77,ESE,107,0.0,6.0,58,0.00,,---,0.00,0.00,VWS V14.01,2013-07-25 02:55:00,
2013-07-24 21:56:00,76.5,60.6,29.77,ESE,106,0.0,0.0,58,0.00,,---,0.00,0.00,VWS V14.01,2013-07-25 02:56:00,
2013-07-24 22:00:00,76.3,60.9,29.77,ESE,107,6.0,6.0,59,0.00,,---,0.00,0.00,VWS V14.01,2013-07-25 03:00:00,
2013-07-24 22:01:00,76.3,60.9,29.77,North,349,4.0,6.0,59,0.00,,---,0.00,0.00,VWS V14.01,2013-07-25 03:01:00,
2013-07-24 22:05:00,76.1,60.8,29.77,NW,304,5.0,6.0,59,0.00,,---,0.00,0.00,VWS V14.01,2013-07-25 03:05:00,
2013-07-24 22:06:00,76.0,60.7,29.77,West,272,5.0,5.0,59,0.00,,---,0.00,0.00,VWS V14.01,2013-07-25 03:06:00,
2013-07-24 22:10:00,76.0,60.2,29.77,South,186,3.0,6.0,58,0.00,,---,0.00,0.00,VWS V14.01,2013-07-25 03:10:00,
2013-07-24 22:12:00,76.0,60.2,29.77,SSE,168,2.0,3.0,58,0.00,,---,0.00,0.00,VWS V14.01,2013-07-25 03:12:00,
2013-07-24 22:15:00,76.0,61.1,29.78,South,175,5.0,5.0,60,0.00,,---,0.00,0.00,VWS V14.01,2013-07-25 03:15:00,
2013-07-24 22:17:00,75.8,61.4,29.78,SW,227,5.0,5.0,61,0.00,,---,0.00,0.00,VWS V14.01,2013-07-25 03:17:00,
2013-07-24 22:20:00,75.3,61.4,29.78,South,191,6.0,6.0,62,0.00,,---,0.00,0.00,VWS V14.01,2013-07-25 03:20:00,
2013-07-24 22:23:00,75.1,61.2,29.78,North,354,6.0,6.0,62,0.00,,---,0.00,0.00,VWS V14.01,2013-07-25 03:23:00,
2013-07-24 22:25:00,74.9,60.6,29.78,SE,141,7.0,7.0,61,0.00,,---,0.00,0.00,VWS V14.01,2013-07-25 03:25:00,
2013-07-24 22:28:00,75.1,60.3,29.78,North,350,6.0,7.0,60,0.00,,---,0.00,0.00,VWS V14.01,2013-07-25 03:28:00,
2013-07-24 22:30:00,75.3,60.5,29.78,North,0,2.0,7.0,60,0.00,,---,0.00,0.00,VWS V14.01,2013-07-25 03:30:00,
2013-07-24 22:33:00,75.4,60.6,29.78,North,352,4.0,7.0,60,0.00,,---,0.00,0.00,VWS V14.01,2013-07-25 03:33:00,
2013-07-24 22:35:00,75.4,60.6,29.78,North,0,6.0,8.0,60,0.00,,---,0.00,0.00,VWS V14.01,2013-07-25 03:35:00,
2013-07-24 22:38:00,75.4,60.6,29.78,North,350,7.0,10.0,60,0.00,,---,0.00,0.00,VWS V14.01,2013-07-25 03:38:00,
2013-07-24 22:40:00,75.4,60.6,29.78,North,356,10.0,10.0,60,0.00,,---,0.00,0.00,VWS V14.01,2013-07-25 03:40:00,
2013-07-24 22:43:00,75.6,60.8,29.78,North,353,8.0,10.0,60,0.00,,---,0.00,0.00,VWS V14.01,2013-07-25 03:43:00,
2013-07-24 22:45:00,75.6,60.8,29.78,North,0,8.0,10.0,60,0.00,,---,0.00,0.00,VWS V14.01,2013-07-25 03:45:00,
2013-07-24 22:49:00,75.6,60.8,29.78,North,0,7.0,8.0,60,0.00,,---,0.00,0.00,VWS V14.01,2013-07-25 03:49:00,
2013-07-24 22:50:00,75.6,60.8,29.78,North,353,6.0,8.0,60,0.00,,---,0.00,0.00,VWS V14.01,2013-07-25 03:50:00,
2013-07-24 22:54:00,75.4,61.0,29.78,North,0,5.0,6.0,61,0.00,,---,0.00,0.00,VWS V14.01,2013-07-25 03:54:00,
2013-07-24 22:55:00,75.4,61.5,29.78,North,0,2.0,6.0,62,0.00,,---,0.00,0.00,VWS V14.01,2013-07-25 03:55:00,
2013-07-24 22:59:00,75.1,61.7,29.78,NNW,347,3.0,4.0,63,0.00,,---,0.00,0.00,VWS V14.01,2013-07-25 03:59:00,
2013-07-24 23:00:00,74.9,61.5,29.81,North,352,3.0,4.0,63,0.00,,---,0.00,0.00,VWS V14.01,2013-07-25 04:00:00,
2013-07-24 23:01:00,74.9,61.5,29.81,North,350,2.0,3.0,63,0.00,,---,0.00,0.00,VWS V14.01,2013-07-25 04:01:00,
2013-07-24 23:02:00,74.9,61.5,29.81,North,349,2.0,3.0,63,0.00,,---,0.00,0.00,VWS V14.01,2013-07-25 04:02:00,
2013-07-24 23:05:00,74.6,61.2,29.81,North,350,3.0,3.0,63,0.00,,---,0.00,0.00,VWS V14.01,2013-07-25 04:05:00,
2013-07-24 23:07:00,74.6,61.2,29.81,South,172,2.0,3.0,63,0.00,,---,0.00,0.00,VWS V14.01,2013-07-25 04:07:00,
2013-07-24 23:10:00,74.6,61.2,29.81,South,179,5.0,5.0,63,0.00,,---,0.00,0.00,VWS V14.01,2013-07-25 04:10:00,
2013-07-24 23:13:00,74.6,61.2,29.81,NNW,346,5.0,5.0,63,0.00,,---,0.00,0.00,VWS V14.01,2013-07-25 04:13:00,
2013-07-24 23:15:00,74.4,61.0,29.82,North,350,4.0,5.0,63,0.00,,---,0.00,0.00,VWS V14.01,2013-07-25 04:15:00,
2013-07-24 23:18:00,74.2,61.2,29.82,North,359,3.0,5.0,64,0.00,,---,0.00,0.00,VWS V14.01,2013-07-25 04:18:00,
2013-07-24 23:20:00,74.2,61.2,29.82,North,352,4.0,5.0,64,0.00,,---,0.00,0.00,VWS V14.01,2013-07-25 04:20:00,
2013-07-24 23:23:00,74.0,61.1,29.82,North,350,5.0,6.0,64,0.00,,---,0.00,0.00,VWS V14.01,2013-07-25 04:23:00,
2013-07-24 23:25:00,74.0,61.1,29.82,North,356,5.0,6.0,64,0.00,,---,0.00,0.00,VWS V14.01,2013-07-25 04:25:00,
2013-07-24 23:28:00,74.0,61.1,29.82,NNW,346,5.0,7.0,64,0.00,,---,0.00,0.00,VWS V14.01,2013-07-25 04:28:00,
2013-07-24 23:30:00,73.9,61.0,29.81,North,0,5.0,7.0,64,0.00,,---,0.00,0.00,VWS V14.01,2013-07-25 04:30:00,
2013-07-24 23:33:00,73.9,61.4,29.81,North,0,6.0,7.0,65,0.00,,---,0.00,0.00,VWS V14.01,2013-07-25 04:33:00,
2013-07-24 23:35:00,73.7,61.2,29.81,North,0,6.0,7.0,65,0.00,,---,0.00,0.00,VWS V14.01,2013-07-25 04:35:00,
2013-07-24 23:38:00,73.3,61.3,29.81,North,356,7.0,7.0,66,0.00,,---,0.00,0.00,VWS V14.01,2013-07-25 04:38:00,
2013-07-24 23:40:00,73.2,61.6,29.81,North,0,8.0,8.0,67,0.00,,---,0.00,0.00,VWS V14.01,2013-07-25 04:40:00,
2013-07-24 23:43:00,73.0,61.4,29.81,North,0,8.0,10.0,67,0.00,,---,0.00,0.00,VWS V14.01,2013-07-25 04:43:00,
2013-07-24 23:45:00,73.0,61.4,29.80,North,356,7.0,10.0,67,0.00,,---,0.00,0.00,VWS V14.01,2013-07-25 04:45:00,
2013-07-24 23:48:00,72.8,61.6,29.80,NNW,344,3.0,8.0,68,0.00,,---,0.00,0.00,VWS V14.01,2013-07-25 04:48:00,
2013-07-24 23:50:00,72.7,61.1,29.80,NW,318,7.0,8.0,67,0.00,,---,0.00,0.00,VWS V14.01,2013-07-25 04:50:00,
2013-07-24 23:54:00,72.7,61.1,29.80,SE,133,3.0,7.0,67,0.00,,---,0.00,0.00,VWS V14.01,2013-07-25 04:54:00,
2013-07-24 23:55:00,72.7,61.1,29.80,North,356,3.0,7.0,67,0.00,,---,0.00,0.00,VWS V14.01,2013-07-25 04:55:00,
2013-07-24 23:59:00,72.7,61.1,29.80,WNW,289,6.0,7.0,67,0.00,,---,0.00,0.00,VWS V14.01,2013-07-25 04:59:00,